Bangor, ME

4:31 AM EST on December 11, 2019 (GMT -0500)
Bangor International

Weather History for KBGR - November, 2019

Change the Weather History Date:

Tuesday, November 12, 2019

  Actual Average Record
Temperature  
Mean Temperature 24 °F 38 °F  
Max Temperature 31 °F 47 °F 66 °F (2012)
Min Temperature 18 °F 30 °F 14 °F (1999)
Degree Days  
Heating Degree Days 40 27  
Month to date heating degree days 331 298  
Since 1 July heating degree days 1021 1124  
Cooling Degree Days 0 0  
Month to date cooling degree days 0 0  
Year to date cooling degree days 336 318  
Moisture  
Dew Point 24 °F    
Average Humidity 91    
Maximum Humidity 100    
Minimum Humidity 71    
Precipitation  
Precipitation 0.13 in 0.14 in 1.06 in (1947)
Month to date precipitation 1.30 1.64  
Year to date precipitation 46.12 35.89  
Snow  
Snow 0.40 in 0.10 in 2.40 in (1987)
Month to date snowfall 2.7 0.3  
Since 1 July snowfall 2.7 0.4  
Since 1 September snowfall 2.7 0.4  
Snow Depth 2.0 in    
Sea Level Pressure  
Sea Level Pressure 29.77 in    
Wind  
Wind Speed 9 mph ()    
Max Wind Speed 21 mph    
Max Gust Speed 28 mph    
Visibility 3.6 miles    
Events Fog , Rain , Snow    
T = Trace of Precipitation, MM = Missing Value Source: Averaged Metar Reports

Daily Weather History Graph

Daily Weather History Graph

Search for Another Location

Airport or City:

Astronomy

Nov. 12, 2019 Rise Set
Actual Time 6:28 AM EST 4:10 PM EST
Civil Twilight 5:56 AM EST 4:41 PM EST
Nautical Twilight 5:21 AM EST 5:16 PM EST
Astronomical Twilight 4:46 AM EST 5:51 PM EST
Moon 4:36 PM EST (11/12) 6:13 AM EST (11/12)
Length of Visible Light 10h 45m
Length of Day
9h 42m
Full, 100% of the Moon is Illuminated
Nov 12
Full
Nov 19
Last Quarter
Nov 26
New
Dec 4
First Quarter
Dec 12
Full

Hourly Weather History & Observations

Time (EST) Temp. Windchill Dew Point Humidity Pressure Visibility Wind Dir Wind Speed Gust Speed Precip Events Conditions
12:04 AM 27.0 °F 16.1 °F 24.1 °F 89% 30.04 in 3.0 mi NE 12.7 mph - 0.00 in Rain , Snow Light Freezing Rain
12:53 AM 27.0 °F 17.3 °F 25.0 °F 92% 30.01 in 3.0 mi NNE 10.4 mph - 0.01 in Rain , Snow Light Freezing Rain
1:05 AM 27.0 °F 16.7 °F 25.0 °F 92% 30.00 in 3.0 mi NNE 11.5 mph - 0.00 in Rain , Snow Light Freezing Rain
1:41 AM 27.0 °F 17.3 °F 25.0 °F 92% 29.97 in 3.0 mi NNE 10.4 mph - 0.00 in Rain , Snow Light Freezing Rain
1:53 AM 27.0 °F 16.1 °F 25.0 °F 92% 29.97 in 3.0 mi NNE 12.7 mph - 0.00 in Rain , Snow Light Freezing Rain
2:53 AM 27.0 °F 16.1 °F 25.0 °F 92% 29.90 in 3.0 mi NNE 12.7 mph - 0.00 in Rain , Snow Light Freezing Rain
3:53 AM 26.1 °F 15.6 °F 25.0 °F 96% 29.86 in 3.0 mi North 11.5 mph - 0.00 in Rain , Snow Light Freezing Rain
4:53 AM 26.1 °F 15.6 °F 25.0 °F 96% 29.80 in 3.0 mi NNE 11.5 mph - 0.00 in Rain , Snow Light Freezing Rain
5:36 AM 26.1 °F 15.6 °F 25.0 °F 96% 29.77 in 2.5 mi North 11.5 mph - 0.00 in Rain , Snow Light Freezing Rain
5:53 AM 26.1 °F 15.6 °F 25.0 °F 96% 29.80 in 2.0 mi NNW 11.5 mph - 0.00 in Rain Light Freezing Rain
6:20 AM 26.1 °F 16.8 °F 25.0 °F 96% 29.75 in 3.0 mi North 9.2 mph - 0.00 in Rain Light Freezing Rain
6:40 AM 26.1 °F 19.4 °F 25.0 °F 96% 29.77 in 1.5 mi North 5.8 mph - 0.00 in Rain Light Freezing Rain
6:53 AM 26.1 °F 16.8 °F 25.0 °F 96% 29.76 in 1.5 mi North 9.2 mph - 0.00 in   Overcast
7:35 AM 26.1 °F 16.8 °F 25.0 °F 96% 29.71 in 3.0 mi NNE 9.2 mph - 0.01 in   Overcast
7:53 AM 26.1 °F 20.5 °F 25.0 °F 96% 29.73 in 3.0 mi NE 4.6 mph - 0.01 in   Overcast
8:31 AM 27.0 °F 21.6 °F 26.1 °F 96% 29.70 in 1.0 mi NNW 4.6 mph - N/A   Overcast
8:53 AM 27.0 °F 21.6 °F 26.1 °F 96% 29.67 in 1.0 mi NE 4.6 mph - N/A   Overcast
9:07 AM 27.0 °F 23.0 °F 27.0 °F 100% 29.67 in 0.5 mi North 3.5 mph - N/A   Overcast
9:23 AM 27.0 °F 23.0 °F 26.1 °F 96% 29.65 in 0.2 mi NW 3.5 mph - N/A Fog Light Freezing Fog
9:50 AM 28.4 °F 23.3 °F 26.6 °F 93% 29.68 in 0.2 mi West 4.6 mph - 0.00 in Fog , Rain Light Freezing Rain
9:53 AM 28.0 °F 22.8 °F 27.0 °F 96% 29.69 in 0.2 mi Variable 4.6 mph - 0.00 in Fog , Rain Light Freezing Rain
10:19 AM 28.0 °F 20.8 °F 27.0 °F 96% 29.67 in 1.0 mi NW 6.9 mph - 0.01 in Rain Light Freezing Rain
10:53 AM 28.0 °F 20.0 °F 27.0 °F 96% 29.68 in 2.0 mi WNW 8.1 mph - 0.03 in Rain Light Freezing Rain
11:31 AM 28.9 °F 22.8 °F 28.0 °F 96% 29.66 in 5.0 mi WNW 5.8 mph - 0.02 in Rain Light Freezing Rain
11:53 AM 28.9 °F - 28.0 °F 96% 29.66 in 5.0 mi Calm Calm - 0.03 in Rain Light Freezing Rain
12:53 PM 30.0 °F 25.2 °F 28.9 °F 96% 29.64 in 6.0 mi WNW 4.6 mph - 0.02 in Rain Light Freezing Rain
1:53 PM 30.9 °F 25.2 °F 28.9 °F 92% 29.66 in 4.0 mi WNW 5.8 mph - 0.01 in Snow Light Snow
1:55 PM 30.9 °F 25.2 °F 28.9 °F 92% 29.65 in 2.0 mi WNW 5.8 mph - 0.00 in Snow Light Snow
2:14 PM 30.9 °F 22.8 °F 28.9 °F 92% 29.66 in 1.5 mi WNW 9.2 mph - 0.01 in Snow Light Snow
2:46 PM 30.0 °F 18.7 °F 27.0 °F 88% 29.68 in 1.5 mi NW 16.1 mph 25.3 mph 0.01 in Snow Light Snow
2:53 PM 30.0 °F 19.5 °F 27.0 °F 88% 29.70 in 1.5 mi NW 13.8 mph 25.3 mph 0.01 in Snow Light Snow
3:53 PM 28.9 °F 19.2 °F 26.1 °F 89% 29.72 in 1.0 mi NNW 11.5 mph - 0.01 in Snow Light Snow
4:53 PM 27.0 °F 13.9 °F 24.1 °F 89% 29.74 in 1.0 mi NW 18.4 mph - 0.00 in Snow Light Snow
5:15 PM 27.0 °F 16.7 °F 23.0 °F 85% 29.74 in 3.0 mi NW 11.5 mph - 0.00 in Snow Light Snow
5:53 PM 26.1 °F 14.5 °F 19.0 °F 75% 29.77 in 10.0 mi NW 13.8 mph 25.3 mph 0.00 in   Overcast
6:53 PM 25.0 °F 14.8 °F 19.9 °F 81% 29.79 in 10.0 mi WNW 10.4 mph - N/A   Overcast
7:53 PM 24.1 °F 14.4 °F 17.1 °F 75% 29.81 in 10.0 mi WNW 9.2 mph - N/A   Overcast
8:53 PM 21.9 °F 8.7 °F 15.1 °F 75% 29.80 in 10.0 mi NW 15.0 mph 23.0 mph N/A   Mostly Cloudy
9:53 PM 21.0 °F 10.6 °F 14.0 °F 74% 29.81 in 10.0 mi WNW 9.2 mph - N/A   Mostly Cloudy
10:53 PM 19.9 °F 9.3 °F 12.9 °F 74% 29.82 in 10.0 mi West 9.2 mph - N/A   Scattered Clouds
11:53 PM 18.0 °F 8.7 °F 10.9 °F 74% 29.84 in 10.0 mi West 6.9 mph 17.3 mph N/A   Mostly Cloudy